Location: ??????????
(44.2167°N, 135.5333°E)
Time: 15:24:43
(UTC+00:00)

Cosmos 1833 Rocket - Pass Details

Date: 15 June 2025
Orbit: 832 x 837 km, 71.0° (Epoch: 15 July)

Event Time Altitude Azimuth Distance (km) Brightness Sun altitude
Rises 14:46:44 0° 341° (NNW) 3,393 7.1 -22.4°
Reaches altitude 10° 14:49:29 10° 352° (N) 2,455 6.2 -22.4°
Maximum altitude 14:54:26 31° 53° (NE) 1,444 4.2 -22.4°
Enters shadow 14:58:43 13° 111° (ESE) 2,245 4.7 -22.4°
